Location: Unspecified
(0.0000°N, 0.0000°E)
Time: 06:10:21
(UTC+00:00)

Transit 4A - Pass Details

Date: 09 October 2020
Orbit: 862 x 982 km, 66.8° (Epoch: 28 October)

Event Time Altitude Azimuth Distance (km) Brightness Sun altitude
Rises 17:24:37 0° 188° (S) 3,468 11.1 5.6°
Reaches altitude 10° 17:27:10 10° 182° (S) 2,541 10.3 4.9°
Maximum altitude 17:32:47 47° 109° (ESE) 1,173 8.2 3.6°
Drops below altitude 10° 17:38:33 10° 37° (NE) 2,607 9.9 2.1°
Sets 17:41:12 0° 31° (NNE) 3,567 10.6 1.5°
